Location: Pasadena-CA
(34.1440°N, 118.1100°W)
Time: 21:12:59
(UTC-07:00)

SEEDS - Visible Passes

Search period start: 28 June 2022 00:00
Search period end: 08 July 2022 00:00
Orbit: 580 x 599 km, 97.6° (Epoch: 28 June)

Date Brightness Start Highest point End Pass type
(mag) Time Alt. Az. Time Alt. Az. Time Alt. Az.
28 Jun ? 04:05:43 10° ENE 04:08:12 16° E 04:10:42 10° SE visible
29 Jun ? 04:13:06 10° NE 04:16:05 19° E 04:19:04 10° SE visible
30 Jun ? 04:20:36 10° NE 04:23:58 24° E 04:27:18 10° SSE visible
01 Jul ? 04:28:11 10° NE 04:31:50 30° E 04:35:26 10° SSE visible
02 Jul ? 04:35:50 10° NNE 04:39:41 37° E 04:43:30 10° SSE visible
03 Jul ? 04:43:32 10° NNE 04:47:31 47° E 04:51:29 10° S visible
04 Jul ? 04:51:16 10° NNE 04:55:21 61° E 04:59:25 10° S visible
05 Jul ? 04:59:02 10° NNE 05:03:10 78° ESE 05:07:17 10° S visible
06 Jul ? 05:06:51 10° N 05:10:58 83° WNW 05:15:05 10° SSW visible
07 Jul ? 05:14:41 10° N 05:18:47 65° WNW 05:22:51 10° SSW visible
